SCP
0 0 0 0 0 0 0 0 0 0 0 0 0 0 0 0 0 0 0 0 0 0 0 0 0 0 0 0 0 0 0 -0 -0 -0 -0 -0 -0 -0 -0 -0 -0 -0 -0
0 0 0 0 0 0 0 0 0 0 0 0 0 0 0 0 0 0 0 0 0 0 0 0 0 0 0 0 0 0 0 0 -0 -0 -0 -0 -0 -0 -0 -0 -0 -0 -0
0 0 0 0 0 0 0 0 0 0 0 0 0 0 0 0 0 0 0 0 0 0 0 0 0 0 0 0 0 0 0 0 0 -0 -0 0 0 -0 -0 -0 -0 -0 -0
0 0 0 0 0 0 0 0 0 0 0 0 0 0 0 0 0 0 0 0 0 0 0 0 0 0 0 0 0 0 0 0 0 0 0 0 0 -0 -0 -0 -0 -0 -0
0 0 0 0 0 0 1 0 0 0 0 0 0 0 0 0 0 0 0 0 0 0 0 -0 0 0 0 0 0 0 0 0 0 0 0 0 0 0 0 0 0 -0 0
0 0 0 0 0 0 0 0 0 0 0 0 0 0 0 0 0 0 0 0 0 0 0 0 0 0 0 0 0 0 0 0 0 0 0 0 0 0 0 0 0 0 0
0 0 0 0 0 0 0 0 0 0 0 0 0 0 0 0 0 0 0 0 0 0 0 0 0 0 0 0 0 0 0 0 0 0 0 0 0 0 0 0 0 0 0
0 0 0 0 0 0 0 0 0 0 0 0 0 0 0 0 0 0 0 0 0 0 0 0 0 0 0 0 0 0 0 0 0 0 0 0 0 0 0 0 0 0 0
0 0 0 0 0 0 0 0 0 0 0 0 0 0 0 0 0 0 0 0 0 0 0 0 0 0 0 0 0 0 0 0 0 0 0 0 0 0 0 0 0 0 0
0 0 0 0 0 0 0 0 0 0 0 0 0 0 0 0 0 0 0 0 0 0 0 0 0 0 0 0 0 0 0 0 0 0 0 0 0 0 0 0 0 0 0
0 0 0 0 0 0 0 0 0 0 0 0 0 0 0 0 0 0 0 0 0 0 0 0 0 0 0 0 0 0 0 0 0 0 0 0 0 0 0 0 0 0 0
0 0 0 0 0 0 0 0 0 0 0 0 0 0 0 0 0 0 0 0 0 0 0 0 0 0 0 0 0 0 0 0 0 0 0 0 0 0 0 0 0 0 0
0 -0 0 0 0 0 0 0 0 0 0 0 0 1 1 0 0 0 0 0 0 0 0 0 0 0 0 0 0 0 0 0 0 0 0 0 0 0 0 0 0 0 0
-0 -0 -0 -0 0 0 0 0 0 0 0 0 0 0 0 1 1 0 0 0 0 0 0 0 0 0 0 0 0 0 0 0 0 0 0 0 0 0 0 0 0 0 0
-0 -0 -0 0 0 0 0 0 0 0 0 0 0 0 0 0 1 1 0 0 0 0 0 0 0 0 0 0 0 0 0 0 0 0 0 0 0 0 0 0 0 0 0
0 0 -0 -0 -0 0 0 0 0 0 0 0 0 0 0 0 0 1 0 1 0 0 0 0 0 0 0 0 0 0 0 0 0 0 0 0 0 0 0 0 0 0 0
-0 -0 -0 -0 -0 -0 0 0 0 0 0 0 0 0 0 0 0 0 0 0 0 0 0 0 0 0 0 0 0 0 0 0 0 0 0 0 0 0 0 0 0 0 0
-0 -0 -0 -0 -0 -0 0 0 0 0 0 0 0 0 0 0 0 0 0 0 0 1 0 0 0 0 0 0 0 0 0 0 0 0 0 0 0 0 0 0 0 0 0
-0 -0 -0 -0 0 0 0 0 0 0 0 0 0 0 0 0 0 0 0 0 0 1 0 0 0 0 0 0 0 0 0 0 0 0 0 0 0 0 0 0 0 0 0
-0 -0 -0 -0 0 0 0 0 0 0 0 0 0 0 0 0 0 0 0 0 0 0 0 0 0 0 0 0 0 0 0 0 0 0 0 0 0 0 0 0 0 0 0
0 0 0 0 0 0 0 0 0 0 0 0 0 0 0 0 0 0 0 0 0 0 0 0 0 0 0 0 0 0 0 0 0 0 0 0 0 0 0 0 0 0 0
0 0 0 0 0 0 0 0 0 0 0 0 0 0 0 0 0 0 0 0 0 1 0 0 0 0 0 0 0 0 0 0 0 0 0 0 0 0 0 0 0 0 0
0 0 0 0 0 0 0 0 0 0 0 0 0 0 0 0 0 0 0 0 0 0 0 0 0 0 0 0 0 0 0 0 0 0 0 0 0 0 0 0 0 0 0
0 0 0 0 0 0 0 0 0 0 0 0 0 0 0 0 0 0 0 0 0 1 0 0 0 0 0 0 0 0 0 0 0 0 0 0 0 0 0 0 0 0 0
0 0 0 0 0 0 0 0 0 0 0 0 0 0 0 0 0 0 0 0 0 1 1 0 0 0 0 0 0 0 0 0 0 0 0 0 0 0 0 0 0 0 0
0 0 0 0 0 0 0 0 0 0 0 0 0 0 0 0 0 0 0 0 0 0 1 1 1 0 0 0 0 0 0 0 0 0 0 0 0 0 0 0 0 0 0
Wind_Speed_500mb
12 9 5 7 12 16 23 24 24 23 23 21 19 17 14 11 17 24 29 30 28 27 26 21 21 23 29 33 29 23 18 17 20 20 17 15 16 44 47 38 39 30 30
23 11 9 11 14 20 23 24 25 24 24 23 22 20 15 12 15 25 29 30 28 24 21 18 18 23 30 33 31 29 26 23 18 16 19 22 38 52 44 41 35 31 29
17 20 6 10 18 20 24 27 27 26 27 26 26 23 17 16 20 26 28 27 27 23 19 14 14 17 24 27 28 28 26 24 22 19 22 31 53 48 38 36 28 27 31
22 17 13 7 18 22 24 28 31 28 28 28 27 24 21 19 22 27 28 30 26 23 16 11 17 18 22 23 23 27 26 32 24 7 25 44 54 38 35 32 32 29 31
21 16 17 8 17 24 24 29 32 32 32 31 29 29 27 25 25 27 29 32 30 25 18 17 20 22 24 30 30 29 28 29 25 12 21 45 50 38 31 34 33 30 34
27 23 15 20 13 30 34 34 32 36 35 35 34 33 32 30 29 29 31 35 33 26 23 22 24 25 29 31 32 27 25 26 33 30 28 24 50 41 32 30 32 32 34
30 28 23 20 27 24 23 33 34 37 39 38 38 38 38 36 36 34 35 38 35 31 29 28 27 29 30 34 33 28 19 20 48 33 31 25 47 46 43 38 32 33 33
31 35 37 26 26 29 28 29 39 39 41 42 42 41 41 41 42 38 37 41 41 38 35 34 30 34 36 37 35 32 27 23 43 34 35 30 32 45 46 38 36 35 35
25 27 33 37 29 30 30 30 36 46 44 45 45 47 44 43 45 43 42 44 46 44 40 38 37 37 35 36 38 36 34 27 50 35 32 35 33 37 47 38 35 38 40
21 22 27 38 39 34 35 33 33 34 50 50 49 50 51 48 48 48 47 48 49 49 47 45 43 41 38 38 36 38 40 42 52 38 31 39 29 42 36 42 32 42 45
34 35 36 39 42 41 38 38 36 36 44 55 55 55 55 56 54 55 53 54 53 53 52 51 50 44 41 40 41 39 42 37 56 54 40 39 34 42 45 45 48 47 46
46 46 46 47 44 40 41 40 41 40 39 44 51 61 61 63 61 61 59 57 57 57 55 56 57 51 46 45 45 43 48 42 59 52 46 41 38 38 38 43 35 48 52
52 56 56 54 52 49 51 46 42 44 44 42 48 49 67 65 67 68 67 65 63 63 63 64 64 58 54 49 52 49 55 52 50 56 45 36 45 42 37 44 34 35 53
58 63 61 55 54 55 53 56 53 45 47 46 46 56 42 71 73 73 75 75 74 72 71 71 73 67 58 52 51 48 53 54 52 57 46 38 38 39 37 42 40 34 44
49 49 53 56 57 57 56 55 59 55 49 53 47 49 55 49 75 80 80 82 83 82 81 82 81 75 65 60 53 50 53 53 50 56 54 42 43 41 39 45 44 41 34
57 65 70 76 84 77 62 56 58 63 58 54 59 51 52 56 56 75 82 91 93 91 86 91 88 81 73 66 57 53 51 47 51 53 48 49 49 44 41 47 47 47 45
66 76 84 95 96 86 71 60 58 63 64 64 60 61 57 57 58 73 62 75 101 101 90 95 91 84 78 71 64 59 56 52 52 62 57 56 52 50 42 48 54 54 52
75 88 98 99 85 74 67 62 59 59 67 72 68 64 65 61 59 65 72 47 73 77 108 99 96 94 86 79 73 68 68 61 59 62 62 63 60 54 47 49 53 58 62
89 97 94 84 74 72 70 67 62 59 61 70 73 69 63 63 62 60 65 59 42 76 68 97 97 98 92 85 79 77 73 72 68 64 67 69 65 60 53 47 49 54 57
88 86 82 81 73 67 64 65 64 58 58 63 70 71 66 62 60 60 57 56 55 60 59 68 70 69 84 85 83 74 74 76 78 73 70 72 72 65 59 55 51 54 57
73 77 79 81 73 60 69 73 71 67 51 54 57 66 69 62 56 57 58 53 48 46 51 78 77 90 62 81 75 71 70 76 75 73 72 71 71 69 63 60 56 56 57
73 72 74 73 62 55 61 61 60 71 70 58 56 51 54 56 53 52 54 55 51 49 56 55 76 84 98 80 75 73 45 60 62 68 68 69 71 68 65 65 61 60 59
71 72 67 63 64 56 54 56 58 57 65 71 61 58 45 55 48 47 48 54 51 48 59 61 70 79 85 89 95 61 21 24 48 66 70 69 67 67 64 62 61 60 60
69 67 61 51 52 57 48 52 53 55 63 67 57 58 41 40 47 45 43 51 64 59 55 59 77 79 86 73 92 87 68 45 32 20 66 76 73 71 64 64 62 58 60
64 61 54 52 53 49 48 46 49 57 65 63 56 51 48 49 47 45 40 44 52 65 69 65 65 70 70 80 92 92 84 77 59 53 35 50 72 74 70 67 65 64 64
61 55 53 50 48 46 44 44 47 45 49 56 48 46 33 42 43 43 46 44 47 57 63 71 77 78 75 88 95 91 91 90 75 63 47 49 54 45 38 43 50 53 49
Wind_Direction_500mb
323 297 288 220 213 231 208 187 190 192 200 212 214 213 221 207 191 193 185 185 187 187 189 202 209 215 205 198 206 202 208 213 218 226 219 205 165 144 139 134 131 129 132
350 325 325 221 202 225 228 209 207 208 212 216 224 221 220 211 192 180 181 181 184 189 193 207 231 221 207 201 205 211 215 217 205 180 183 162 153 146 144 138 136 137 148
357 353 337 204 189 226 236 224 219 215 216 219 222 228 221 210 195 187 185 186 184 190 197 210 217 194 186 191 201 205 196 177 164 160 162 162 152 146 137 142 137 143 144
1 356 341 221 214 208 238 234 228 226 224 223 223 227 228 217 207 199 193 189 191 190 198 196 174 167 168 158 163 163 162 164 167 141 159 160 153 147 150 152 150 159 145
358 4 332 322 232 222 221 247 239 233 232 228 227 225 227 221 214 213 206 200 196 199 203 191 185 176 173 162 163 163 171 179 164 157 138 168 155 154 159 157 158 168 157
350 358 337 295 289 228 221 222 243 245 236 234 231 228 229 229 219 218 218 210 207 208 211 198 201 194 186 187 179 184 203 213 167 163 171 169 167 163 169 168 159 171 166
343 333 340 306 291 296 250 232 233 237 242 239 236 233 231 232 220 219 221 217 215 215 210 206 209 212 208 203 200 202 210 204 163 177 177 198 188 177 177 181 181 179 170
335 328 316 312 304 287 270 264 237 240 236 241 237 235 234 230 224 222 219 218 220 223 221 216 225 227 228 218 218 225 217 197 172 181 186 212 203 205 197 186 191 188 181
327 324 315 306 300 300 293 275 258 239 243 236 234 236 236 234 229 228 223 219 222 225 227 228 238 222 225 225 228 225 221 200 178 191 187 217 218 214 202 192 195 196 193
322 311 311 305 300 293 293 287 269 264 239 240 236 232 235 235 235 235 230 226 225 226 227 233 235 222 225 231 230 233 223 195 184 188 193 221 216 189 192 196 206 197 199
301 304 304 303 303 295 286 285 279 267 262 241 238 237 233 235 235 235 234 231 231 228 229 232 223 222 232 234 228 232 221 212 195 194 197 222 205 194 197 201 210 201 202
310 309 308 303 300 297 287 280 277 272 263 260 248 237 236 235 233 235 236 234 234 232 232 231 222 220 229 227 225 227 226 224 203 200 202 209 217 213 212 216 217 209 204
307 309 309 308 303 301 297 288 276 273 266 258 253 244 241 239 236 236 236 236 232 232 231 229 223 222 227 225 223 231 225 222 207 208 210 212 225 223 222 215 217 210 209
317 312 312 313 309 301 295 291 287 278 269 260 252 253 251 241 240 237 237 236 236 231 230 227 224 224 226 224 228 232 224 224 219 199 208 213 230 225 234 221 209 221 213
324 326 323 321 320 317 302 288 282 277 272 266 256 247 247 250 243 242 240 239 237 234 232 227 225 225 225 223 225 231 229 222 215 208 208 214 228 233 238 222 204 216 216
321 319 317 315 314 310 302 293 280 277 268 264 261 251 246 248 250 239 246 243 239 234 231 227 224 223 225 224 227 230 227 222 217 211 213 220 228 234 236 221 212 213 216
313 314 312 312 309 304 296 288 282 269 269 263 258 256 249 248 247 242 240 246 245 232 231 225 223 224 224 225 228 230 228 224 219 213 216 221 227 230 227 223 223 217 215
310 311 309 308 305 301 296 286 277 273 262 262 260 257 253 250 251 247 250 265 254 230 228 224 223 223 224 226 227 227 228 222 224 220 220 222 228 232 230 228 227 227 227
309 309 308 308 305 299 294 288 281 272 266 258 257 256 254 253 253 254 255 255 252 245 231 219 214 228 223 225 227 227 226 228 232 232 227 228 231 234 233 233 231 230 231
310 308 305 306 304 296 291 284 277 274 270 263 257 252 253 255 254 255 254 255 255 254 243 230 234 219 227 236 223 226 228 229 233 237 237 231 234 238 237 236 235 233 235
309 305 305 306 307 301 291 288 279 273 269 269 259 253 251 253 255 254 250 244 247 240 239 232 229 220 223 220 220 224 227 232 236 239 238 235 235 236 240 241 239 239 238
306 303 304 306 307 297 293 296 290 273 267 263 253 249 248 255 254 255 245 241 238 243 241 245 225 220 220 225 233 227 211 226 235 233 233 234 235 238 239 241 243 244 244
309 308 306 298 298 298 299 298 293 285 269 262 256 243 245 245 249 248 246 232 231 232 236 230 221 217 218 224 220 202 165 207 229 234 232 232 235 235 237 240 242 247 250
315 312 308 304 304 299 299 291 286 279 275 254 260 248 251 242 246 254 249 235 231 231 229 231 229 227 212 207 200 218 229 221 209 245 241 238 236 236 236 241 244 248 252
320 318 309 303 299 296 296 285 279 283 274 259 259 245 240 240 251 245 241 241 235 233 232 231 228 223 222 216 211 207 218 225 224 220 237 237 235 239 241 245 251 252 254
323 319 315 310 306 302 298 285 272 305 260 249 248 237 248 235 236 237 250 243 241 238 233 231 235 235 231 223 218 221 217 211 208 213 222 244 231 226 236 248 250 251 251
Wind_Speed_850mb
12 9 5 7 12 16 23 24 24 23 23 21 19 17 14 11 17 24 29 30 28 27 26 21 21 23 29 33 29 23 18 17 20 20 17 15 16 44 47 38 39 30 30
23 11 9 11 14 20 23 24 25 24 24 23 22 20 15 12 15 25 29 30 28 24 21 18 18 23 30 33 31 29 26 23 18 16 19 22 38 52 44 41 35 31 29
17 20 6 10 18 20 24 27 27 26 27 26 26 23 17 16 20 26 28 27 27 23 19 14 14 17 24 27 28 28 26 24 22 19 22 31 53 48 38 36 28 27 31
22 17 13 7 18 22 24 28 31 28 28 28 27 24 21 19 22 27 28 30 26 23 16 11 17 18 22 23 23 27 26 32 24 7 25 44 54 38 35 32 32 29 31
21 16 17 8 17 24 24 29 32 32 32 31 29 29 27 25 25 27 29 32 30 25 18 17 20 22 24 30 30 29 28 29 25 12 21 45 50 38 31 34 33 30 34
27 23 15 20 13 30 34 34 32 36 35 35 34 33 32 30 29 29 31 35 33 26 23 22 24 25 29 31 32 27 25 26 33 30 28 24 50 41 32 30 32 32 34
30 28 23 20 27 24 23 33 34 37 39 38 38 38 38 36 36 34 35 38 35 31 29 28 27 29 30 34 33 28 19 20 48 33 31 25 47 46 43 38 32 33 33
31 35 37 26 26 29 28 29 39 39 41 42 42 41 41 41 42 38 37 41 41 38 35 34 30 34 36 37 35 32 27 23 43 34 35 30 32 45 46 38 36 35 35
25 27 33 37 29 30 30 30 36 46 44 45 45 47 44 43 45 43 42 44 46 44 40 38 37 37 35 36 38 36 34 27 50 35 32 35 33 37 47 38 35 38 40
21 22 27 38 39 34 35 33 33 34 50 50 49 50 51 48 48 48 47 48 49 49 47 45 43 41 38 38 36 38 40 42 52 38 31 39 29 42 36 42 32 42 45
34 35 36 39 42 41 38 38 36 36 44 55 55 55 55 56 54 55 53 54 53 53 52 51 50 44 41 40 41 39 42 37 56 54 40 39 34 42 45 45 48 47 46
46 46 46 47 44 40 41 40 41 40 39 44 51 61 61 63 61 61 59 57 57 57 55 56 57 51 46 45 45 43 48 42 59 52 46 41 38 38 38 43 35 48 52
52 56 56 54 52 49 51 46 42 44 44 42 48 49 67 65 67 68 67 65 63 63 63 64 64 58 54 49 52 49 55 52 50 56 45 36 45 42 37 44 34 35 53
58 63 61 55 54 55 53 56 53 45 47 46 46 56 42 71 73 73 75 75 74 72 71 71 73 67 58 52 51 48 53 54 52 57 46 38 38 39 37 42 40 34 44
49 49 53 56 57 57 56 55 59 55 49 53 47 49 55 49 75 80 80 82 83 82 81 82 81 75 65 60 53 50 53 53 50 56 54 42 43 41 39 45 44 41 34
57 65 70 76 84 77 62 56 58 63 58 54 59 51 52 56 56 75 82 91 93 91 86 91 88 81 73 66 57 53 51 47 51 53 48 49 49 44 41 47 47 47 45
66 76 84 95 96 86 71 60 58 63 64 64 60 61 57 57 58 73 62 75 101 101 90 95 91 84 78 71 64 59 56 52 52 62 57 56 52 50 42 48 54 54 52
75 88 98 99 85 74 67 62 59 59 67 72 68 64 65 61 59 65 72 47 73 77 108 99 96 94 86 79 73 68 68 61 59 62 62 63 60 54 47 49 53 58 62
89 97 94 84 74 72 70 67 62 59 61 70 73 69 63 63 62 60 65 59 42 76 68 97 97 98 92 85 79 77 73 72 68 64 67 69 65 60 53 47 49 54 57
88 86 82 81 73 67 64 65 64 58 58 63 70 71 66 62 60 60 57 56 55 60 59 68 70 69 84 85 83 74 74 76 78 73 70 72 72 65 59 55 51 54 57
73 77 79 81 73 60 69 73 71 67 51 54 57 66 69 62 56 57 58 53 48 46 51 78 77 90 62 81 75 71 70 76 75 73 72 71 71 69 63 60 56 56 57
73 72 74 73 62 55 61 61 60 71 70 58 56 51 54 56 53 52 54 55 51 49 56 55 76 84 98 80 75 73 45 60 62 68 68 69 71 68 65 65 61 60 59
71 72 67 63 64 56 54 56 58 57 65 71 61 58 45 55 48 47 48 54 51 48 59 61 70 79 85 89 95 61 21 24 48 66 70 69 67 67 64 62 61 60 60
69 67 61 51 52 57 48 52 53 55 63 67 57 58 41 40 47 45 43 51 64 59 55 59 77 79 86 73 92 87 68 45 32 20 66 76 73 71 64 64 62 58 60
64 61 54 52 53 49 48 46 49 57 65 63 56 51 48 49 47 45 40 44 52 65 69 65 65 70 70 80 92 92 84 77 59 53 35 50 72 74 70 67 65 64 64
61 55 53 50 48 46 44 44 47 45 49 56 48 46 33 42 43 43 46 44 47 57 63 71 77 78 75 88 95 91 91 90 75 63 47 49 54 45 38 43 50 53 49
Wind_Direction_850mb
323 297 288 220 213 231 208 187 190 192 200 212 214 213 221 207 191 193 185 185 187 187 189 202 209 215 205 198 206 202 208 213 218 226 219 205 165 144 139 134 131 129 132
350 325 325 221 202 225 228 209 207 208 212 216 224 221 220 211 192 180 181 181 184 189 193 207 231 221 207 201 205 211 215 217 205 180 183 162 153 146 144 138 136 137 148
357 353 337 204 189 226 236 224 219 215 216 219 222 228 221 210 195 187 185 186 184 190 197 210 217 194 186 191 201 205 196 177 164 160 162 162 152 146 137 142 137 143 144
1 356 341 221 214 208 238 234 228 226 224 223 223 227 228 217 207 199 193 189 191 190 198 196 174 167 168 158 163 163 162 164 167 141 159 160 153 147 150 152 150 159 145
358 4 332 322 232 222 221 247 239 233 232 228 227 225 227 221 214 213 206 200 196 199 203 191 185 176 173 162 163 163 171 179 164 157 138 168 155 154 159 157 158 168 157
350 358 337 295 289 228 221 222 243 245 236 234 231 228 229 229 219 218 218 210 207 208 211 198 201 194 186 187 179 184 203 213 167 163 171 169 167 163 169 168 159 171 166
343 333 340 306 291 296 250 232 233 237 242 239 236 233 231 232 220 219 221 217 215 215 210 206 209 212 208 203 200 202 210 204 163 177 177 198 188 177 177 181 181 179 170
335 328 316 312 304 287 270 264 237 240 236 241 237 235 234 230 224 222 219 218 220 223 221 216 225 227 228 218 218 225 217 197 172 181 186 212 203 205 197 186 191 188 181
327 324 315 306 300 300 293 275 258 239 243 236 234 236 236 234 229 228 223 219 222 225 227 228 238 222 225 225 228 225 221 200 178 191 187 217 218 214 202 192 195 196 193
322 311 311 305 300 293 293 287 269 264 239 240 236 232 235 235 235 235 230 226 225 226 227 233 235 222 225 231 230 233 223 195 184 188 193 221 216 189 192 196 206 197 199
301 304 304 303 303 295 286 285 279 267 262 241 238 237 233 235 235 235 234 231 231 228 229 232 223 222 232 234 228 232 221 212 195 194 197 222 205 194 197 201 210 201 202
310 309 308 303 300 297 287 280 277 272 263 260 248 237 236 235 233 235 236 234 234 232 232 231 222 220 229 227 225 227 226 224 203 200 202 209 217 213 212 216 217 209 204
307 309 309 308 303 301 297 288 276 273 266 258 253 244 241 239 236 236 236 236 232 232 231 229 223 222 227 225 223 231 225 222 207 208 210 212 225 223 222 215 217 210 209
317 312 312 313 309 301 295 291 287 278 269 260 252 253 251 241 240 237 237 236 236 231 230 227 224 224 226 224 228 232 224 224 219 199 208 213 230 225 234 221 209 221 213
324 326 323 321 320 317 302 288 282 277 272 266 256 247 247 250 243 242 240 239 237 234 232 227 225 225 225 223 225 231 229 222 215 208 208 214 228 233 238 222 204 216 216
321 319 317 315 314 310 302 293 280 277 268 264 261 251 246 248 250 239 246 243 239 234 231 227 224 223 225 224 227 230 227 222 217 211 213 220 228 234 236 221 212 213 216
313 314 312 312 309 304 296 288 282 269 269 263 258 256 249 248 247 242 240 246 245 232 231 225 223 224 224 225 228 230 228 224 219 213 216 221 227 230 227 223 223 217 215
310 311 309 308 305 301 296 286 277 273 262 262 260 257 253 250 251 247 250 265 254 230 228 224 223 223 224 226 227 227 228 222 224 220 220 222 228 232 230 228 227 227 227
309 309 308 308 305 299 294 288 281 272 266 258 257 256 254 253 253 254 255 255 252 245 231 219 214 228 223 225 227 227 226 228 232 232 227 228 231 234 233 233 231 230 231
310 308 305 306 304 296 291 284 277 274 270 263 257 252 253 255 254 255 254 255 255 254 243 230 234 219 227 236 223 226 228 229 233 237 237 231 234 238 237 236 235 233 235
309 305 305 306 307 301 291 288 279 273 269 269 259 253 251 253 255 254 250 244 247 240 239 232 229 220 223 220 220 224 227 232 236 239 238 235 235 236 240 241 239 239 238
306 303 304 306 307 297 293 296 290 273 267 263 253 249 248 255 254 255 245 241 238 243 241 245 225 220 220 225 233 227 211 226 235 233 233 234 235 238 239 241 243 244 244
309 308 306 298 298 298 299 298 293 285 269 262 256 243 245 245 249 248 246 232 231 232 236 230 221 217 218 224 220 202 165 207 229 234 232 232 235 235 237 240 242 247 250
315 312 308 304 304 299 299 291 286 279 275 254 260 248 251 242 246 254 249 235 231 231 229 231 229 227 212 207 200 218 229 221 209 245 241 238 236 236 236 241 244 248 252
320 318 309 303 299 296 296 285 279 283 274 259 259 245 240 240 251 245 241 241 235 233 232 231 228 223 222 216 211 207 218 225 224 220 237 237 235 239 241 245 251 252 254
323 319 315 310 306 302 298 285 272 305 260 249 248 237 248 235 236 237 250 243 241 238 233 231 235 235 231 223 218 221 217 211 208 213 222 244 231 226 236 248 250 251 251